Miscellaneous Local Product
Issued by NWS Hastings, NE

Home | Current Version | Previous Version | Graphics & Text | Print | Product List | Glossary On
Versions: 1 2 3 4 5 6 7 8 9 10 11 12 13 14 15 16 17 18 19 20 21 22 23 24 25 26 27 28 29 30 31 32 33 34 35 36 37 38 39 40 41 42 43 44 45 46 47 48 49 50
206
AXUS43 KGID 160802
MISGRI

GID CWA HOURLY WEATHER ROUNDUP
NATIONAL WEATHER SERVICE HASTINGS NE
200 AM CST MON JAN 16 2017

NOTE: "FAIR" INDICATES FEW OR NO CLOUDS BELOW 12,000 FEET WITH NO
SIGNIFICANT WEATHER AND/OR OBSTRUCTIONS TO VISIBILITY.

...SOUTH CENTRAL NEBRASKA...

CITY           SKY/WX    TMP DP  RH WIND       PRES   REMARKS
GRAND ISLAND   FRZ RAIN  30  30 100 E7        30.05F FOG     WCI  23
HASTINGS       CLOUDY    31  29  92 NE6       30.04F FOG     WCI  25
KEARNEY        CLOUDY    30  28  93 NE6       30.03F WCI  24
ORD            CLOUDY    31  28  89 E3        30.05S FOG
YORK           LGT RAIN  32  32 100 CALM      30.07F
AURORA         MIX PCPN  31  30  97 NE5       30.05F WCI  26
LEXINGTON      CLOUDY    31  30  95 NE3       30.02S FOG
HOLDREGE       CLOUDY    31  30  96 NE3       30.00F FOG
HEBRON         MIX PCPN  32  31  98 NE6       30.03F WCI  26

...NEBRASKA PANHANDLE...

CITY           SKY/WX    TMP DP  RH WIND       PRES   REMARKS
CHADRON        CLOUDY    24  20  84 W5        30.04R WCI  18
ALLIANCE       CLOUDY    31  26  82 CALM      29.98S
SCOTTSBLUFF    CLOUDY    32  27  81 NW5       30.00R WCI  27
SIDNEY         MIX PCPN  31  28  89 N9        29.95F WCI  23

...WESTERN AND NORTH CENTRAL NEBRASKA...

CITY           SKY/WX    TMP DP  RH WIND       PRES   REMARKS
VALENTINE      CLOUDY    27  23  85 CALM      30.04R
AINSWORTH      MIX PCPN  31  27  87 CALM      30.03R
ONEILL         MIX PCPN  32  31  97 CALM      30.07S
BROKEN BOW     CLOUDY    32  30  92 CALM      30.02F
IMPERIAL       CLOUDY    31  29  92 N7        29.97F FOG     WCI  24
NORTH PLATTE   CLOUDY    31  30  96 CALM      30.00F FOG
MCCOOK         CLOUDY    30  30 100 NE6       29.99F WCI  24

...EASTERN NEBRASKA...

CITY           SKY/WX    TMP DP  RH WIND       PRES   REMARKS
NORFOLK        CLOUDY    29  28  96 E3        30.09S FOG
SO SIOUX CITY  FRZ RAIN  32  30  92 SE5       30.14R FOG     WCI  27
TEKAMAH        CLOUDY    32  31  96 NE3       30.12F FOG
COLUMBUS       CLOUDY    30  28  93 E5        30.09F WCI  25
ALBION         MIX PCPN  31  29  96 SE3       30.08S
OMAHA EPPLEY   DRIZZLE   33  29  85 E3        30.13S FOG
OFFUTT AFB     FRZ DRZL  32  32 100 N3        30.11F
MILLARD        CLOUDY    34  32  94 CALM      30.12R
LINCOLN        CLOUDY    32  31  96 NE7       30.10F FOG     WCI  26
NEBRASKA CITY  CLOUDY    32  32 100 NE6       30.08F FOG     WCI  26
BEATRICE       MIX PCPN  32  32 100 NE6       30.05F WCI  26
FALLS CITY     FRZ RAIN  32  31  96 E7        30.07F FOG     WCI  26

...NORTHERN KANSAS...

CITY           SKY/WX    TMP DP  RH WIND       PRES   REMARKS
GOODLAND       FRZ RAIN  30  29  96 N10       29.92F WCI  21
HILL CITY      FRZ RAIN  31  31 100 NE12      29.96F FOG     WCI  22
NORTON         CLOUDY    30  27  86 N5        29.97F WCI  25
PHILLIPSBURG   MIX PCPN  32  32 100 N7        29.99F WCI  26
SMITH CENTER   MIX PCPN  30  30 100 NE5       29.99F WCI  25
HAYS           FLURRIES  32  30  92 NE16      29.91F WCI  21
RUSSELL        MIX PCPN  31  30  96 NE16      29.91F FOG     WCI  20
CONCORDIA      FRZ RAIN  31  31 100 NE9       29.99F FOG     WCI  23
SALINA           N/A    N/A N/A N/A MISG        N/A
TOPEKA         LGT RAIN  34  31  88 NE6       30.02F FOG     WCI  29



USA.gov is the U.S. government's official web portal to all federal, state and local government web resources and services.